sat.trackr.live / text

‹ back to catalog

STARLINK-2439

NORAD 48104 · 2021-027N

PAYLOAD ACTIVE UNKNOWN

§ Identity

Operator
Country
US
Launch date
2021-04-07
Launch site
AFETR
Launch vehicle
Mass (kg)
RCS (m²)

Purposes: comms

External: N2YO · Heavens-Above · Gunter

§ Orbital elements

Epoch: 2026-09-19T15:57:18.446976Z

Period
94.01 min
Inclination
53.1610°
Eccentricity
0.0001504
Mean motion
15.31717515 rev/d
Perigee alt
469.7 km
Apogee alt
471.7 km
Semi-major
6,848.8 km
B*
1.2696e-4
RAAN
330.0620°
Arg perigee
74.0373°
Mean anomaly
286.0794°
Rev number
30,241

§ Raw data

STARLINK-24391 48104U 21027N   26262.66479684  .00003578  00000+0  12696-3 0  99962 48104  53.1610 330.0620 0001504  74.0373 286.0794 15.31717515302415

JSON: /api/v1/satellites/48104 · /tle

For live sub-satellite position, see the globe view (requires WebGL).

§ Visibility from observer

Set your observer location to see the next 7 days of passes ≥ 10°. The values pass through the URL so the page stays shareable.

No JS? Fill the form by hand. The geolocation button needs JavaScript.